Flag for Denmark Weather past 2 weeks in Horsens, Denmark

Now
39 °F

Clear.


Feels Like: 34 °F
Forecast: 39 / 49 °F
Wind: 7 mph from Southwest

Location: Billund Lufthavn


UV Index: 0 (Low)

Visibility: 10 mi


Pressure: 29.68 "Hg

Humidity: 93%

Dew point: 37 °F

Location of HorsensLocation

Historic Weather in Horsens

°F

Horsens temperature yesterday

Maximum temperature yesterday: 55 °F (at 2:50 PM)
Minimum temperature yesterday: 27 °F (at 4:50 AM)
Average temperature yesterday: 43 °F

Past Weeks' High & Low Weather Summary

 TemperatureHumidityPressure
High57 °F (Apr 17, 12:20 PM)100% (Apr 5, 5:20 AM)30.45 "Hg (Apr 5, 5:20 AM)
Low27 °F (Apr 16, 4:50 AM)28% (Apr 16, 12:50 PM)29.53 "Hg (Apr 8, 6:50 AM)
Average45 °F79%29.94 "Hg
* Reported Apr 2 10:50 PM — Apr 17 10:20 PM, Horsens, Weather by CustomWeather, © 2014

Note: Actual official high and low records may vary slightly from our data, if they occured in-between our weather recording intervals... More about our weather records

Advertising

Historic Weather Conditions — Data for Previous 24 hours

 ConditionsComfort  
Time TempWeatherWind HumidityBarometerVisibility
10:20 PM
Apr 17
39 °FClear.8 mph93%29.68 "Hg10 mi
9:50 PM41 °FPassing clouds.9 mph93%29.68 "HgN/A
9:20 PM43 °FScattered clouds.10 mph87%29.68 "HgN/A
8:50 PM43 °FLight rain. Broken clouds.17 mph93%29.68 "HgN/A
8:20 PM45 °FLight rain. Partly sunny.10 mph93%29.68 "HgN/A
7:50 PM45 °FLight rain. Partly sunny.12 mph93%29.71 "Hg6 mi
6:50 PM45 °FLight rain. Partly sunny.17 mph93%29.71 "Hg4 mi
6:20 PM46 °FLight rain. Fog.15 mph93%29.71 "Hg2 mi
5:50 PM46 °FLight rain. Partly sunny.18 mph93%29.74 "Hg3 mi
5:20 PM46 °FLight rain. Fog.20 mph100%29.74 "Hg3 mi
4:50 PM48 °FLight rain. Partly sunny.21 mph87%29.77 "Hg4 mi
4:20 PM50 °FLight rain. Partly sunny.24 mph76%29.77 "HgN/A
3:50 PM50 °FBroken clouds.22 mph71%29.80 "HgN/A
3:20 PM48 °FBroken clouds.17 mph76%29.83 "HgN/A
2:50 PM50 °FLight rain. Broken clouds.22 mph67%29.83 "HgN/A
1:50 PM54 °FPassing clouds.21 mph54%29.89 "HgN/A
1:20 PM54 °FPassing clouds.22 mph51%29.89 "HgN/A
12:50 PM57 °FPassing clouds.21 mph48%29.92 "HgN/A
12:20 PM57 °FPassing clouds.24 mph48%29.92 "HgN/A
11:20 AM55 °FPassing clouds.18 mph51%29.98 "HgN/A
10:50 AM54 °FPassing clouds.20 mph51%30.01 "HgN/A
10:20 AM54 °FPassing clouds.14 mph58%30.01 "HgN/A
9:20 AM48 °FPassing clouds.14 mph66%30.04 "HgN/A
8:50 AM48 °FPassing clouds.14 mph66%30.04 "HgN/A
7:50 AM45 °FPassing clouds.9 mph71%30.09 "HgN/A
7:20 AM45 °FPassing clouds.9 mph71%30.09 "HgN/A
6:50 AM45 °FPassing clouds.9 mph66%30.09 "HgN/A
6:20 AM43 °FPassing clouds.8 mph66%30.12 "HgN/A
5:50 AM43 °FPassing clouds.7 mph66%30.12 "HgN/A
4:50 AM43 °FPassing clouds.7 mph66%30.18 "HgN/A
4:20 AM41 °FPassing clouds.6 mph70%30.18 "HgN/A
3:50 AM41 °FPassing clouds.6 mph70%30.21 "HgN/A
3:20 AM41 °FPassing clouds.6 mph76%30.21 "HgN/A
2:50 AM39 °FClear.5 mph87%30.24 "Hg10 mi
2:20 AM41 °FClear.6 mph81%30.24 "Hg10 mi
1:50 AM41 °FPassing clouds.6 mph87%30.27 "HgN/A
1:20 AM41 °FClear.6 mph87%30.27 "Hg10 mi
12:50 AM41 °FClear.3 mph87%30.30 "Hg10 mi
12:20 AM41 °FClear.3 mph81%30.30 "Hg10 mi
11:50 PM
Apr 16
41 °FClear.3 mph87%30.30 "Hg10 mi
11:20 PM41 °FClear.5 mph81%30.30 "Hg10 mi
Weather by CustomWeather, © 2014

See weather overview